GW1618 Weather Reports


Display with metric or nautical units.
time (UTC)temp
F
wind
direction
speed
MPH
gust
MPH
rain 1hr
in
rain 24hr
in
rain mn
in
humidity
%
barometer
mb
20260503023654 72 96 5.0 9.0 0.00 0.00 0.00 40 1011.8
20260503022634 72 53 5.0 10.0 0.00 0.00 0.00 40 1011.7
20260503022135 73 76 6.0 11.0 0.00 0.00 0.00 39 1011.7
20260503021630 73 81 7.0 13.0 0.00 0.00 0.00 39 1011.7
20260503021130 73 112 7.0 13.0 0.00 0.00 0.00 39 1011.7
20260503020633 73 101 6.0 11.0 0.00 0.00 0.00 38 1011.7
20260503020140 73 89 5.0 11.0 0.00 0.00 0.00 38 1011.6
20260503015645 73 134 6.0 11.0 0.00 0.00 0.00 38 1011.6
20260503015127 73 119 5.0 11.0 0.00 0.00 0.00 38 1011.6
20260503014615 73 109 6.0 11.0 0.00 0.00 0.00 39 1011.6
20260503014109 74 108 6.0 11.0 0.00 0.00 0.00 38 1011.6
20260503013609 74 109 5.0 11.0 0.00 0.00 0.00 38 1011.6
20260503013111 74 80 5.0 11.0 0.00 0.00 0.00 40 1011.7
20260503012613 74 78 5.0 10.0 0.00 0.00 0.00 39 1011.7
20260503012106 74 112 5.0 10.0 0.00 0.00 0.00 39 1011.7
20260503011611 74 117 6.0 12.0 0.00 0.00 0.00 40 1011.6
20260503011110 74 80 6.0 12.0 0.00 0.00 0.00 40 1011.6
20260503010606 74 73 5.0 9.0 0.00 0.00 0.00 40 1011.6
20260503010348 74 84 5.0 11.0 0.00 0.00 0.00 40 1011.8
20260503005601 74 41 6.0 11.0 0.00 0.00 0.00 40 1011.8
20260503005102 74 84 6.0 11.0 0.00 0.00 0.00 39 1011.8
20260503004602 74 107 5.0 11.0 0.00 0.00 0.00 39 1011.8
20260503004100 74 96 5.0 9.0 0.00 0.00 0.00 39 1011.8
20260503003604 74 111 4.0 8.0 0.00 0.00 0.00 40 1011.8
20260503003105 74 145 4.0 8.0 0.00 0.00 0.00 39 1011.8
20260503002605 73 104 5.0 10.0 0.00 0.00 0.00 41 1011.8
20260503002100 73 100 7.0 11.0 0.00 0.00 0.00 41 1011.8
20260503001845 73 67 6.0 11.0 0.00 0.00 0.00 41 1011.9
20260503001102 73 98 6.0 11.0 0.00 0.00 0.00 42 1011.9
20260503000602 73 70 6.0 10.0 0.00 0.00 0.00 42 1011.9
20260503000103 73 63 5.0 10.0 0.00 0.00 0.00 42 1012.0
20260502235603 73 48 5.0 10.0 0.00 0.00 0.00 43 1012.0
20260502235102 73 88 7.0 12.0 0.00 0.00 0.00 43 1012.3
20260502234606 73 65 6.0 12.0 0.00 0.00 0.00 43 1012.3
20260502234101 73 73 5.0 9.0 0.00 0.00 0.00 45 1012.3
20260502233850 73 115 4.0 9.0 0.00 0.00 0.00 44 1012.6
20260502232545 73 55 4.0 9.0 0.00 0.00 0.00 45 1012.6
20260502232042 73 121 6.0 11.0 0.00 0.00 0.00 48 1012.7
20260502231538 72 4 7.0 11.0 0.00 0.00 0.00 48 1012.7
20260502231038 71 351 6.0 11.0 0.00 0.00 0.00 50 1012.7
20260502230822 71 353 5.0 8.0 0.00 0.00 0.00 52 1012.9
20260502230039 71 359 6.0 9.0 0.00 0.00 0.00 50 1012.9
20260502225540 71 4 5.0 9.0 0.00 0.00 0.00 51 1012.9
20260502225039 71 15 4.0 7.0 0.00 0.00 0.00 51 1013.0
20260502224538 71 352 4.0 7.0 0.00 0.00 0.00 51 1013.0
20260502224038 71 340 5.0 9.0 0.00 0.00 0.00 52 1013.0
20260502223816 71 25 5.0 9.0 0.00 0.00 0.00 51 1013.3
20260502223033 70 28 5.0 7.0 0.00 0.00 0.00 51 1013.3
20260502222530 70 336 5.0 7.0 0.00 0.00 0.00 51 1013.3
20260502222029 70 359 5.0 9.0 0.00 0.00 0.00 51 1013.4
20260502221533 70 338 5.0 9.0 0.00 0.00 0.00 52 1013.4
20260502221029 70 13 5.0 7.0 0.00 0.00 0.00 54 1013.4
20260502220755 69 359 5.0 8.0 0.00 0.00 0.00 54 1013.7
20260502220255 69 349 6.0 9.0 0.00 0.00 0.00 54 1013.7
20260502215513 69 332 6.0 9.0 0.00 0.00 0.00 56 1013.7
20260502215012 69 330 6.0 9.0 0.00 0.00 0.00 55 1013.9
20260502214510 69 359 4.0 9.0 0.00 0.00 0.00 52 1013.9
20260502214012 69 19 4.0 7.0 0.00 0.00 0.00 54 1013.9
20260502213511 68 359 4.0 7.0 0.00 0.00 0.00 54 1014.2
20260502213006 68 324 4.0 6.0 0.00 0.00 0.00 55 1014.2
20260502212507 68 336 4.0 6.0 0.00 0.00 0.00 55 1014.2
20260502212004 68 15 4.0 7.0 0.00 0.00 0.00 56 1014.4
20260502211504 68 335 4.0 7.0 0.00 0.00 0.00 55 1014.4
20260502211004 67 52 4.0 7.0 0.00 0.00 0.00 55 1014.4
20260502210504 67 34 4.0 7.0 0.00 0.00 0.00 56 1014.4
20260502210001 67 354 4.0 7.0 0.00 0.00 0.00 56 1014.4
20260502205505 67 330 4.0 6.0 0.00 0.00 0.00 58 1014.4
20260502205247 66 321 3.0 5.0 0.00 0.00 0.00 59 1014.5
20260502204505 66 322 4.0 6.0 0.00 0.00 0.00 57 1014.5
20260502204256 66 359 4.0 6.0 0.00 0.00 0.00 59 1014.5
20260502203500 65 322 5.0 7.0 0.00 0.00 0.00 58 1014.7
20260502202959 65 351 5.0 10.0 0.00 0.00 0.00 59 1014.7
20260502202453 65 342 4.0 10.0 0.00 0.00 0.00 58 1014.7
20260502201945 65 335 4.0 8.0 0.00 0.00 0.00 60 1014.9
20260502201444 65 34 6.0 9.0 0.00 0.00 0.00 59 1014.9
20260502200940 65 333 5.0 9.0 0.00 0.00 0.00 59 1014.9
20260502200442 65 14 4.0 8.0 0.00 0.00 0.00 61 1015.0
20260502195940 64 17 4.0 9.0 0.00 0.00 0.00 60 1015.0
20260502195436 64 9 3.0 9.0 0.00 0.00 0.00 61 1015.0
20260502194938 63 359 4.0 6.0 0.00 0.00 0.00 62 1015.1
20260502194437 63 9 5.0 11.0 0.00 0.00 0.00 62 1015.1
20260502193934 63 350 6.0 11.0 0.00 0.00 0.00 62 1015.1
20260502193437 63 21 5.0 10.0 0.00 0.00 0.00 63 1015.3
20260502192933 62 324 5.0 10.0 0.00 0.00 0.00 64 1015.3
20260502192430 61 61 6.0 10.0 0.00 0.00 0.00 67 1015.3
20260502191931 61 33 7.0 12.0 0.00 0.00 0.00 66 1015.5
20260502191429 61 359 6.0 12.0 0.00 0.00 0.00 67 1015.5
20260502190932 61 4 6.0 11.0 0.00 0.00 0.00 67 1015.5
20260502190429 60 345 5.0 10.0 0.00 0.00 0.00 67 1015.7
20260502190218 60 9 4.0 7.0 0.00 0.00 0.00 68 1015.7
20260502185713 60 339 4.0 7.0 0.00 0.00 0.00 70 1015.7
20260502185209 59 9 4.0 6.0 0.00 0.00 0.00 70 1015.9
20260502184651 59 325 3.0 5.0 0.00 0.00 0.00 70 1015.9
20260502183903 58 41 4.0 6.0 0.00 0.00 0.00 70 1015.9
20260502183359 58 337 4.0 7.0 0.00 0.00 0.00 71 1016.0
20260502182848 58 13 3.0 7.0 0.00 0.00 0.00 73 1016.0
20260502182346 57 9 3.0 5.0 0.00 0.00 0.00 74 1016.0
20260502181841 57 315 3.0 5.0 0.00 0.00 0.00 74 1016.1
20260502181340 56 359 4.0 5.0 0.00 0.00 0.00 76 1016.1
20260502180840 56 28 4.0 6.0 0.00 0.00 0.00 77 1016.1
20260502180340 55 344 5.0 6.0 0.00 0.00 0.00 77 1016.3
20260502170330 52 359 4.0 6.0 0.00 0.00 0.00 84 1016.5
20260502170112 52 354 4.0 7.0 0.00 0.00 0.00 84 1016.5
20260502164328 52 335 4.0 6.0 0.00 0.00 0.00 85 1016.5
20260502163821 51 348 4.0 6.0 0.00 0.00 0.00 85 1016.5
20260502163311 51 335 4.0 6.0 0.00 0.00 0.00 86 1016.5
20260502162802 51 338 4.0 5.0 0.00 0.00 0.00 86 1016.5
20260502162304 51 359 4.0 5.0 0.00 0.00 0.00 86 1016.5
20260502161756 51 4 4.0 7.0 0.00 0.00 0.00 86 1016.5
20260502161256 51 359 4.0 7.0 0.00 0.00 0.00 87 1016.5
20260502161034 51 359 4.0 7.0 0.00 0.00 0.00 87 1016.5
20260502160247 50 9 5.0 7.0 0.00 0.00 0.00 88 1016.5
20260502152247 50 337 2.0 4.0 0.00 0.00 0.00 87 1016.5
20260502152031 50 9 1.0 4.0 0.00 0.00 0.00 87 1016.5
20260502151245 50 60 2.0 6.0 0.00 0.00 0.00 87 1016.5
20260502150745 50 59 3.0 6.0 0.00 0.00 0.00 87 1016.5
20260502150233 50 19 2.0 5.0 0.00 0.00 0.00 87 1016.5
20260502130615 50 18 2.0 4.0 0.00 0.00 0.00 87 1016.0
20260502130115 50 17 2.0 4.0 0.00 0.00 0.00 87 1016.0
20260502123602 50 30 2.0 3.0 0.00 0.00 0.00 87 1016.1
20260502123100 50 9 1.0 3.0 0.00 0.00 0.00 87 1016.2
20260502122601 50 25 1.0 3.0 0.00 0.00 0.00 87 1016.2
20260502122101 50 14 2.0 3.0 0.00 0.00 0.00 87 1016.2
20260502121601 50 359 1.0 3.0 0.00 0.00 0.00 87 1016.4
20260502121105 50 328 1.0 2.0 0.00 0.00 0.00 86 1016.4
20260502120834 50 323 1.0 3.0 0.00 0.00 0.00 86 1016.4
20260502115601 50 242 0.0 2.0 0.00 0.00 0.00 86 1016.5
20260502115106 50 242 1.0 2.0 0.00 0.00 0.00 86 1016.5
20260502114606 50 242 1.0 3.0 0.00 0.00 0.00 86 1016.5
20260502114104 50 265 2.0 3.0 0.00 0.00 0.00 86 1016.5
20260502113601 50 258 2.0 3.0 0.00 0.00 0.00 85 1016.5
20260502113102 50 249 2.0 3.0 0.00 0.00 0.00 85 1016.3
20260502112835 50 258 1.0 3.0 0.00 0.00 0.00 85 1016.3
20260502112059 50 161 1.0 3.0 0.00 0.00 0.00 85 1016.0
20260502111555 50 234 2.0 3.0 0.00 0.00 0.00 85 1016.0
20260502111055 50 306 2.0 4.0 0.00 0.00 0.00 85 1016.0
20260502110547 50 324 3.0 4.0 0.00 0.00 0.00 85 1016.1
20260502110045 50 312 2.0 3.0 0.00 0.00 0.00 85 1016.1
20260502105543 51 294 2.0 3.0 0.00 0.00 0.00 84 1016.1
20260502105045 51 306 2.0 4.0 0.00 0.00 0.00 84 1016.7
20260502104825 51 269 2.0 4.0 0.00 0.00 0.00 84 1016.7
20260502104032 51 223 2.0 4.0 0.00 0.00 0.00 83 1016.7
20260502103818 51 181 3.0 5.0 0.00 0.00 0.00 83 1017.0
20260502103032 51 198 4.0 8.0 0.00 0.00 0.00 83 1017.0
20260502102530 51 166 4.0 8.0 0.00 0.00 0.00 83 1017.0
20260502102035 51 157 4.0 6.0 0.00 0.00 0.00 83 1017.0
20260502101533 51 211 4.0 6.0 0.00 0.00 0.00 83 1017.0
20260502101029 51 178 4.0 6.0 0.00 0.00 0.00 84 1017.0
20260502100529 51 161 2.0 6.0 0.00 0.00 0.00 84 1016.5
20260502091450 51 55 1.0 3.0 0.00 0.00 0.00 83 1016.2
20260502090951 51 55 2.0 3.0 0.00 0.00 0.00 83 1016.2
20260502090449 51 16 2.0 3.0 0.00 0.00 0.00 83 1016.4
20260502071335 53 144 3.0 6.0 0.00 0.00 0.00 77 1016.1
20260502070833 53 170 3.0 5.0 0.00 0.00 0.00 77 1016.1
20260502070333 53 148 2.0 5.0 0.00 0.00 0.00 76 1016.1
20260502065833 53 159 2.0 5.0 0.00 0.00 0.00 76 1016.1
20260502065613 53 179 1.0 3.0 0.00 0.00 0.00 77 1016.1
20260502064831 54 317 1.0 3.0 0.00 0.00 0.00 78 1016.0
20260502064334 54 296 1.0 2.0 0.00 0.00 0.00 77 1016.0
20260502063830 54 225 1.0 3.0 0.00 0.00 0.00 75 1016.0
20260502063331 54 178 2.0 4.0 0.00 0.00 0.00 75 1016.0
20260502063105 54 158 2.0 4.0 0.00 0.00 0.00 75 1016.0
20260502062324 54 148 2.0 4.0 0.00 0.00 0.00 75 1016.0
20260502061820 54 165 3.0 5.0 0.00 0.00 0.00 74 1016.0
20260502061603 55 159 3.0 5.0 0.00 0.00 0.00 74 1016.0
20260502060820 55 182 2.0 5.0 0.00 0.00 0.00 75 1016.0
20260502060322 54 151 1.0 4.0 0.00 0.00 0.00 76 1016.0
20260502055817 54 241 1.0 3.0 0.00 0.00 0.00 76 1016.0
20260502055305 55 313 1.0 2.0 0.00 0.00 0.00 75 1016.0
20260502054806 55 318 1.0 2.0 0.00 0.00 0.00 75 1016.0
20260502054306 55 318 2.0 3.0 0.00 0.00 0.00 75 1016.0
20260502053801 55 309 2.0 4.0 0.00 0.00 0.00 74 1016.0
20260502053259 55 285 2.0 4.0 0.00 0.00 0.00 75 1016.0
20260502052747 55 346 2.0 4.0 0.00 0.00 0.00 74 1016.0
20260502052233 55 335 2.0 3.0 0.00 0.00 0.00 74 1016.0
20260502051732 55 32 2.0 4.0 0.00 0.00 0.00 75 1016.0
20260502051234 55 359 3.0 4.0 0.00 0.00 0.00 74 1016.0
20260502050733 56 9 2.0 3.0 0.00 0.00 0.00 74 1016.0
20260502050232 56 4 2.0 4.0 0.00 0.00 0.00 74 1016.0
20260502045729 56 346 3.0 6.0 0.00 0.00 0.00 73 1016.0
20260502045229 56 334 2.0 6.0 0.00 0.00 0.00 74 1016.0
20260502045018 56 323 2.0 5.0 0.00 0.00 0.00 74 1015.8
20260502044229 56 355 2.0 5.0 0.00 0.00 0.00 74 1015.8
20260502043733 56 13 3.0 6.0 0.00 0.00 0.00 74 1015.8
20260502043221 56 4 3.0 6.0 0.00 0.00 0.00 75 1015.5
20260502042734 57 29 4.0 10.0 0.00 0.00 0.00 75 1015.5
20260502041705 57 16 8.0 12.0 0.00 0.00 0.00 74 1015.4
20260502041206 57 359 8.0 13.0 0.00 0.00 0.00 74 1015.4
20260502040953 58 25 9.0 13.0 0.00 0.00 0.00 73 1015.4
20260502040451 58 32 8.0 12.0 0.00 0.00 0.00 72 1015.0
20260502035703 58 30 7.0 12.0 0.00 0.00 0.00 72 1015.0
20260502035201 58 26 8.0 13.0 0.00 0.00 0.00 71 1015.0
20260502034704 59 13 9.0 13.0 0.00 0.00 0.00 71 1014.8
20260502034159 59 20 10.0 13.0 0.00 0.00 0.00 70 1014.8
20260502033648 59 27 9.0 13.0 0.00 0.00 0.00 69 1014.8
20260502033132 60 26 8.0 13.0 0.00 0.00 0.00 69 1014.5
20260502032630 60 16 8.0 11.0 0.00 0.00 0.00 68 1014.5
20260502032130 60 359 8.0 11.0 0.00 0.00 0.00 67 1014.5
20260502031628 61 33 8.0 11.0 0.00 0.00 0.00 67 1014.4
20260502031131 61 18 6.0 11.0 0.00 0.00 0.00 64 1014.4
20260502030629 62 9 5.0 11.0 0.00 0.00 0.00 63 1014.4
20260502030128 62 35 4.0 8.0 0.00 0.00 0.00 64 1014.0
20260502025628 63 15 3.0 7.0 0.00 0.00 0.00 60 1014.0
20260502025131 64 335 4.0 7.0 0.00 0.00 0.00 59 1014.0